Augusta Bush, GA

5:48 PM EDT on May 28, 2017 (GMT -0400)
Augusta Regional At Bush

Weather History for KAGS - January, 2014

Change the Weather History Date:

Tuesday, January 21, 2014

  Actual Average Record
Temperature  
Mean Temperature 46 °F 46 °F  
Max Temperature 63 °F 58 °F 78 °F (1959)
Min Temperature 29 °F 33 °F -1 °F (1985)
Degree Days  
Heating Degree Days 19 20  
Month to date heating degree days 483 420  
Since 1 July heating degree days 1400 1395  
Cooling Degree Days 0 0  
Month to date cooling degree days 0 0  
Year to date cooling degree days 0 0  
Moisture  
Dew Point 29 °F    
Average Humidity 59    
Maximum Humidity 92    
Minimum Humidity 26    
Precipitation  
Precipitation 0.00 in 0.13 in 1.92 in (1983)
Month to date precipitation 2.22 2.60  
Year to date precipitation 2.22 2.60  
Sea Level Pressure  
Sea Level Pressure 29.78 in    
Wind  
Wind Speed 13 mph (West)    
Max Wind Speed 32 mph    
Max Gust Speed 41 mph    
Visibility 10 miles    
Events      
T = Trace of Precipitation, MM = Missing Value Source: NWS Daily Summary

Daily Weather History Graph

Daily Weather History Graph

Search for Another Location

Airport or City:

Trip Planner

Search our weather history database for the weather conditions in past years. The results will help you decide how hot, cold, wet, or windy it might be!

Date:

Astronomy

Jan. 21, 2014 Rise Set
Actual Time 7:29 AM EST 5:48 PM EST
Civil Twilight 7:03 AM EST 6:15 PM EST
Nautical Twilight 6:32 AM EST 6:45 PM EST
Astronomical Twilight 6:03 AM EST 7:15 PM EST
Moon 11:01 PM EST (1/21) 10:16 AM EST (1/21)
Length of Visible Light 11h 12m
Length of Day
10h 19m
Waning Gibbous, 75% of the Moon is Illuminated
Jan 21
Waning Gibbous
Jan 24
Last Quarter
Jan 30
New
Feb 6
First Quarter
Feb 14
Full

Hourly Weather History & Observations

Time (EST) Temp. Windchill Dew Point Humidity Pressure Visibility Wind Dir Wind Speed Gust Speed Precip Events Conditions
12:53 AM 37.9 °F 34.4 °F 28.9 °F 70% 29.88 in 10.0 mi SW 4.6 mph - N/A   Clear
1:53 AM 34.0 °F - 28.9 °F 82% 29.87 in 10.0 mi Calm Calm - N/A   Clear
2:53 AM 32.0 °F - 28.9 °F 88% 29.86 in 10.0 mi Calm Calm - N/A   Clear
3:53 AM 33.1 °F - 28.9 °F 85% 29.84 in 10.0 mi Calm Calm - N/A   Clear
4:53 AM 30.9 °F - 28.0 °F 89% 29.83 in 10.0 mi Calm Calm - N/A   Clear
5:53 AM 39.9 °F 35.1 °F 33.1 °F 77% 29.79 in 10.0 mi WSW 6.9 mph - N/A   Clear
6:53 AM 43.0 °F 38.2 °F 35.1 °F 74% 29.78 in 10.0 mi WSW 8.1 mph - N/A   Clear
7:53 AM 42.1 °F 39.2 °F 36.0 °F 79% 29.76 in 10.0 mi SW 4.6 mph - N/A   Clear
8:53 AM 46.9 °F - 37.9 °F 71% 29.75 in 10.0 mi SW 9.2 mph - N/A   Clear
9:53 AM 53.1 °F - 37.9 °F 57% 29.73 in 10.0 mi SW 6.9 mph - N/A   Clear
10:53 AM 55.0 °F - 39.0 °F 55% 29.72 in 10.0 mi WSW 13.8 mph 21.9 mph N/A   Partly Cloudy
11:53 AM 57.9 °F - 37.9 °F 47% 29.68 in 10.0 mi West 12.7 mph 23.0 mph N/A   Mostly Cloudy
12:53 PM 62.1 °F - 37.0 °F 39% 29.63 in 10.0 mi West 15.0 mph - N/A   Clear
1:53 PM 61.0 °F - 32.0 °F 34% 29.62 in 10.0 mi WNW 25.3 mph 31.1 mph N/A   Partly Cloudy
2:53 PM 59.0 °F - 27.0 °F 29% 29.65 in 10.0 mi West 28.8 mph 40.3 mph N/A   Scattered Clouds
3:53 PM 55.0 °F - 21.9 °F 28% 29.71 in 10.0 mi NW 20.7 mph 33.4 mph N/A   Mostly Cloudy
4:53 PM 51.1 °F - 21.0 °F 31% 29.74 in 10.0 mi West 25.3 mph 34.5 mph N/A   Partly Cloudy
5:53 PM 48.0 °F - 23.0 °F 37% 29.78 in 10.0 mi WNW 15.0 mph 24.2 mph N/A   Clear
6:53 PM 46.0 °F 38.8 °F 23.0 °F 40% 29.81 in 10.0 mi WNW 18.4 mph 27.6 mph N/A   Clear
7:53 PM 43.0 °F 35.7 °F 24.1 °F 47% 29.83 in 10.0 mi WNW 15.0 mph 28.8 mph N/A   Clear
8:53 PM 41.0 °F 32.8 °F 24.1 °F 51% 29.85 in 10.0 mi WNW 16.1 mph 26.5 mph N/A   Clear
9:53 PM 37.9 °F 27.9 °F 24.1 °F 57% 29.88 in 10.0 mi WNW 19.6 mph 29.9 mph N/A   Clear
10:53 PM 36.0 °F 26.0 °F 23.0 °F 59% 29.90 in 10.0 mi WNW 17.3 mph 24.2 mph N/A   Clear
11:53 PM 33.1 °F 22.2 °F 21.0 °F 61% 29.91 in 10.0 mi WNW 17.3 mph 24.2 mph N/A   Clear